Tracking 27402 objects as of 3-Jun-2023
HD Live streaming from Space Station
objects crossing your sky now

DELTA 1 DEB

Track DELTA 1 DEB now!
10-day predictions


NORAD ID: 26841
Int'l Code: 1975-052KV
Perigee: 923.5 km
Apogee: 1,723.2 km
Inclination: 99.9 °
Period: 111.9 minutes
Semi major axis: 7694 km
RCS: 0.0089 m2 (small)
Launch date: June 12, 1975
Source: United States (US)
Launch site: AIR FORCE WESTERN TEST RANGE (AFWTR)

Note: This is SATELLITE DEBRIS
Your satellite tracking list
Your tracking list is empty




NASA's NSSDC Master Catalog

Two Line Element Set (TLE):
1 26841U 75052KV  23153.18076664  .00000173  00000-0  46505-3 0  9996
2 26841  99.9096 227.1222 0519677 119.8119 272.9085 12.86307019428091
Source of the keplerian elements: AFSPC